Location: D�rnast
(49.6426°N, 11.9755°E)
Time: 19:52:15
(UTC+00:00)

Cosmos 1777 Rocket - Pass Details

Date: 24 January 2021
Orbit: 758 x 776 km, 74.0° (Epoch: 02 March)

Event Time Altitude Azimuth Distance (km) Brightness Sun altitude
Rises 16:25:36 0° 194° (SSW) 3,228 7.8 -5.4°
Reaches altitude 10° 16:27:58 10° 192° (SSW) 2,309 7.0 -5.7°
Maximum altitude 16:33:11 70° 110° (ESE) 823 4.1 -6.5°
Drops below altitude 10° 16:38:27 10° 27° (NNE) 2,334 6.1 -7.3°
Sets 16:40:51 0° 26° (NNE) 3,267 6.8 -7.7°
